This demonstration page uses our WeatherBlox Daily Observations layout. Learn more.

Left ArrowRight Arrow

39.12711, -84.51439

Hourly Observations for August 27, 2018

Temp ( °F °C ) Dew Point ( °F °C ) Humidity (%) Winds ( mph kmh ) Pressure ( in mb ) Visibility ( mi km ) Precip ( " mm )
12:53 am 00:53 Clear with Mist and Fog 73 22.8 73 22.8 100 100 N N/A 30.09 1019 5 8 N/A
1:53 am 01:53 Clear with Mist and Fog 73 22.8 73 22.8 100 100 N N/A 30.09 1019 4 6 N/A
2:53 am 02:53 Clear with Mist and Fog 71 21.7 71 21.7 100 100 N N/A 30.07 1018 4 6 N/A
3:53 am 03:53 Clear with Mist and Fog 72 22.2 72 22.2 100 100 N N/A 30.07 1018 3 5 N/A
4:17 am 04:17 Clear with Mist and Fog 71 21.7 71 21.7 100 100 N N/A 30.06 1018 2 3 N/A
4:40 am 04:40 Clear with Mist and Fog 70 21.1 70 21.1 100 100 N N/A 30.06 1018 3 5 N/A
4:53 am 04:53 Clear with Mist and Fog 72 22.2 71 21.7 97 97 N N/A 30.08 1019 6 10 N/A
5:14 am 05:14 Clear with Mist and Fog 71 21.7 71 21.7 100 100 N N/A 30.06 1018 2 3 N/A
5:31 am 05:31 Clear with Fog 70 21.1 70 21.1 100 100 N N/A 30.06 1018 0 0 N/A
5:41 am 05:41 Clear with Mist and Fog 71 21.7 71 21.7 100 100 N N/A 30.06 1018 1 2 N/A
5:51 am 05:51 Clear with Mist and Fog 72 22 72 22 100 100 N N/A 30.06 1018 3 5 N/A
5:52 am 05:52 Clear with Mist and Fog 71 21.7 71 21.7 100 100 N N/A 30.09 1019 3 5 N/A
5:58 am 05:58 Clear with Mist and Fog 71 21.7 71 21.7 100 100 N N/A 30.06 1018 2 3 N/A
6:07 am 06:07 Clear with Fog 70 21.1 70 21.1 100 100 N N/A 30.06 1018 0 0 N/A
6:16 am 06:16 Clear with Mist and Fog 71 21.7 71 21.7 100 100 N N/A 30.06 1018 1 2 N/A
6:25 am 06:25 Clear with Mist and Fog 70 21.1 70 21.1 100 100 WSW 3 6 30.09 1019 3 4 N/A
6:30 am 06:30 Mostly Cloudy with Mist and Fog 70 21.1 70 21.1 100 100 N N/A 30.06 1018 1 1 N/A
6:37 am 06:37 Mostly Cloudy with Fog 70 21.1 70 21.1 100 100 N N/A 30.09 1019 1 1 N/A
6:40 am 06:40 Mostly Clear with Mist and Fog 70 21.1 70 21.1 100 100 WSW 3 6 30.09 1019 1 2 N/A
6:48 am 06:48 Clear with Mist and Fog 72 22 72 22 100 100 WSW 3 6 30.06 1018 3 4 N/A
6:53 am 06:53 Clear with Mist and Fog 71 21.7 71 21.7 100 100 N N/A 30.09 1019 5 8 N/A
7:53 am 07:53 Sunny with Patchy Fog 71 21.7 71 21.7 100 100 N N/A 30.11 1020 10 16 N/A
8:53 am 08:53 Sunny 78 25.6 74 23.3 87 87 S 3 6 30.13 1020 7 11 N/A
9:53 am 09:53 Sunny 82 27.8 74 23.3 77 77 SW 6 9 30.13 1020 8 13 N/A
10:53 am 10:53 Sunny 85 29.4 74 23.3 70 70 SSW 9 15 30.13 1020 9 14 N/A
11:53 am 11:53 Mostly Sunny 87 30.6 74 23.3 65 65 SSW 10 17 30.13 1020 9 14 N/A
12:53 pm 12:53 Partly Cloudy 89 31.7 75 23.9 63 63 SW 14 22 30.11 1020 10 16 N/A
1:53 pm 13:53 Partly Cloudy 89 31.7 74 23.3 61 61 SW 9 15 30.09 1019 9 14 N/A
2:53 pm 14:53 Partly Cloudy 90 32.2 74 23.3 59 59 SSW 13 20 30.09 1019 10 16 N/A
3:53 pm 15:53 Partly Cloudy 89 31.7 74 23.3 61 61 SSW 10 17 30.07 1018 10 16 N/A
4:53 pm 16:53 Partly Cloudy 90 32.2 73 22.8 58 58 S 14 22 30.06 1018 10 16 N/A
5:53 pm 17:53 Mostly Sunny 88 31.1 73 22.8 61 61 SSW 12 19 30.05 1018 10 16 N/A
6:53 pm 18:53 Mostly Sunny 87 30.6 73 22.8 63 63 SSW 14 22 30.05 1018 10 16 N/A
7:53 pm 19:53 Sunny 82 27.8 74 23.3 77 77 S 6 9 30.05 1018 9 14 N/A
8:53 pm 20:53 Clear 78 25.6 73 22.8 85 85 S 5 7 30.04 1017 10 16 N/A
9:53 pm 21:53 Clear 78 25.6 74 23.3 87 87 N N/A 30.05 1018 10 16 N/A
10:53 pm 22:53 Clear 77 25 73 22.8 88 88 S 3 6 30.06 1018 10 16 N/A
11:53 pm 23:53 Clear 76 24.4 73 22.8 91 91 N N/A 30.06 1018 9 14 N/A

Powered by AerisWeather